Weather History for Sevilla, Spain

Change the Weather History Date:

Wednesday, November 14, 2012

  Actual Average Record
Temperature  
Mean Temperature 57 °F -  
Max Temperature 66 °F 63 °F 73 °F (1998)
Min Temperature 48 °F 46 °F 42 °F (1999)
Degree Days  
Heating Degree Days 8    
Growing Degree Days 7 (Base 50)    
Moisture  
Dew Point 48 °F    
Average Humidity 72    
Maximum Humidity 93    
Minimum Humidity 52    
Precipitation  
Precipitation 0.00 in - - ()
Sea Level Pressure  
Sea Level Pressure 29.96 in    
Wind  
Wind Speed 2 mph ()    
Max Wind Speed 7 mph    
Max Gust Speed -    
Averages and records for this station are not official NWS values.
T = Trace of Precipitation, MM = Missing Value Source: Averaged Metar Reports

Daily Weather History Graph

Daily Weather History Graph

Search for Another Location

Airport:

Trip Planner

Search our weather history database for the weather conditions in past years. The results will help you decide how hot, cold, wet, or windy it might be!

Date:

Astronomy

Nov. 14, 2012 Rise Set
Actual Time 8:02 AM CET 6:13 PM CET
Civil Twilight 7:34 AM CET 6:41 PM CET
Nautical Twilight 7:02 AM CET 7:12 PM CET
Astronomical Twilight 6:32 AM CET 7:43 PM CET
Moon 8:34 AM CET (11/14) 6:49 PM CET (11/14)
Length of Visible Light 11h 06m
Length of Day
10h 11m
New Moon, 0% of the Moon is Illuminated
Nov 14
New Moon
Nov 20
First Quarter
Nov 28
Full
Dec 6
Last Quarter
Dec 13
New

Hourly Weather History & Observations

Time (CET) Temp. Dew Point Humidity Pressure Visibility Wind Dir Wind Speed Gust Speed Precip Events Conditions
12:00 AM 53.6 °F 46.4 °F 77% 30.01 in - NNE 1.2 mph - N/A   Clear
12:30 AM 53.6 °F 46.4 °F 77% 30.01 in - NE 3.5 mph - N/A   Clear
1:00 AM 51.8 °F 46.4 °F 82% 30.01 in - ENE 1.2 mph - N/A   Clear
4:30 AM 48.2 °F 44.6 °F 87% 29.98 in - Calm Calm - N/A   Clear
5:00 AM 48.2 °F 46.4 °F 93% 29.98 in - ESE 3.5 mph - N/A   Clear
5:30 AM 48.2 °F 46.4 °F 93% 29.98 in - Calm Calm - N/A   Clear
6:00 AM 50.0 °F 46.4 °F 87% 29.95 in - ENE 3.5 mph - N/A   Clear
6:30 AM 48.2 °F 44.6 °F 87% 29.95 in - NNE 2.3 mph - N/A   Clear
7:00 AM 48.2 °F 44.6 °F 87% 29.95 in - NE 4.6 mph - N/A   Clear
7:30 AM 48.2 °F 44.6 °F 87% 29.95 in - NNE 3.5 mph - N/A   Clear
8:00 AM 48.2 °F 44.6 °F 87% 29.95 in - NNE 4.6 mph - N/A   Clear
8:30 AM 50.0 °F 44.6 °F 82% 29.98 in - NNE 6.9 mph - N/A   Clear
9:00 AM 51.8 °F 46.4 °F 82% 29.98 in - NNE 6.9 mph - N/A   Clear
9:30 AM 53.6 °F 46.4 °F 77% 29.98 in - Calm Calm - N/A   Clear
10:00 AM 55.4 °F 44.6 °F 67% 29.98 in - ENE 5.8 mph - N/A   Clear
10:30 AM 57.2 °F 46.4 °F 67% 29.98 in - ENE 3.5 mph - N/A   Clear
11:00 AM 59.0 °F 48.2 °F 67% 29.98 in - ENE 3.5 mph - N/A   Clear
11:30 AM 60.8 °F 48.2 °F 63% 29.98 in - Variable 1.2 mph - N/A   Clear
12:00 PM 60.8 °F 50.0 °F 68% 29.98 in - Variable 2.3 mph - N/A   Clear
12:30 PM 62.6 °F 50.0 °F 63% 29.95 in - ESE 3.5 mph - N/A   Clear
1:00 PM 64.4 °F 50.0 °F 59% 29.95 in - SE 2.3 mph - N/A   Clear
1:30 PM 64.4 °F 46.4 °F 52% 29.95 in - SSE 4.6 mph - N/A   Clear
2:00 PM 64.4 °F 48.2 °F 56% 29.95 in - Variable 2.3 mph - N/A   Clear
2:30 PM 66.2 °F 50.0 °F 56% 29.95 in - SE 1.2 mph - N/A   Clear
3:00 PM 66.2 °F 48.2 °F 52% 29.92 in - SSE 3.5 mph - N/A   Clear
3:30 PM 66.2 °F 50.0 °F 56% 29.92 in - Variable 2.3 mph - N/A   Clear
4:00 PM 66.2 °F 48.2 °F 52% 29.92 in - Variable 2.3 mph - N/A   Clear
4:30 PM 66.2 °F 50.0 °F 56% 29.95 in - SE 3.5 mph - N/A   Clear
5:00 PM 66.2 °F 48.2 °F 52% 29.95 in - Variable 2.3 mph - N/A   Clear
5:30 PM 66.2 °F 51.8 °F 60% 29.95 in - Variable 2.3 mph - N/A   Clear
6:00 PM 64.4 °F 51.8 °F 64% 29.95 in - ENE 4.6 mph - N/A   Clear
6:30 PM 62.6 °F 51.8 °F 68% 29.95 in - Calm Calm - N/A   Clear
7:00 PM 62.6 °F 51.8 °F 68% 29.95 in - North 1.2 mph - N/A   Clear
7:30 PM 60.8 °F 51.8 °F 72% 29.95 in - NNE 1.2 mph - N/A   Clear
8:00 PM 59.0 °F 51.8 °F 77% 29.95 in - NNE 1.2 mph - N/A   Clear
8:30 PM 59.0 °F 51.8 °F 77% 29.95 in - Calm Calm - N/A   Clear
9:00 PM 57.2 °F 51.8 °F 82% 29.95 in - NE 2.3 mph - N/A   Clear
9:30 PM 57.2 °F 51.8 °F 82% 29.98 in - Calm Calm - N/A   Clear
10:00 PM 57.2 °F 51.8 °F 82% 29.98 in - Variable 1.2 mph - N/A   Clear
10:30 PM 55.4 °F 51.8 °F 88% 29.98 in - Variable 2.3 mph - N/A   Clear
11:00 PM 57.2 °F 50.0 °F 77% 29.98 in - East 4.6 mph - N/A   Clear